Content
SEND FEEDBACK

Daily
Averages
Monthly
Summary
United States of America

STEAMBOAT SPRINGS, COLORADO


Home > North America > United States > Colorado
Elevation: 6917 feet     Latitude: 40 30N     Longitude: 106 50W

WEATHER
 
SELECT A DAY
Number of Records: 88,372;   Date Range: 1/3/95 - 9/30/14
 
SHARE

PRINT THIS DATA

[ ← Previous Day ]
WEATHER ALMANAC - JANUARY 24, 2013
[ Next Day → ]
[ °C ]   °F
Weather ElementAverageHighLow
Temperature22.5 °F35.8 °F (2:35 pm)7.5 °F (6:55 am)
Dewpoint16.8 °F32 °F (5:35 pm)2.3 °F (8:15 am)
Humidity80.2 %100 % (5:35 pm)51 % (11:55 am)
Barometer30.26 in30.30 in (9:15 pm)30.22 in (1:55 pm)
Wind Speed1.2 mph9.2 mph (10:35 am)
Weather ElementAverage
Visibility7.1 mi
Wind DirectionNNE (34.5 °)

Weather ElementTotal
Precipitation---
Heating Degree Days43.4 (Base 65)
Averaged from 71 records on January 24, 2013
WEATHER CONDITIONS BREAKOUT
WIND DIRECTION BREAKOUT
WEATHER BY HOUR - JANUARY 24, 2013
[ °C ]   °F
Local TimeTemperatureDewpointHumidityBarometerVisibilityWind DirectionWind SpeedGust SpeedPrecipitationEventsConditions
12:35 AM14.2 °F5.7 °F69 %30.27 in10.0 miCalmClear
12:55 AM10.6 °F4.8 °F78 %30.26 in10.0 miSE (130°)3.5 mphClear
1:15 AM8.4 °F3.7 °F81 %30.26 in10.0 miCalmClear
1:35 AM12.0 °F5.7 °F76 %30.27 in10.0 miCalmClear
1:55 AM11.5 °F4.6 °F74 %30.27 in10.0 miCalmClear
2:15 AM9.5 °F3.0 °F75 %30.27 in10.0 miCalmClear
2:35 AM12.0 °F6.3 °F78 %30.27 in10.0 miCalmClear
2:55 AM11.7 °F5.9 °F78 %30.27 in10.0 miCalmClear
3:15 AM11.7 °F5.7 °F77 %30.26 in10.0 miCalmClear
3:35 AM9.1 °F3.6 °F78 %30.26 in10.0 miCalmClear
3:55 AM9.1 °F3.0 °F76 %30.26 in10.0 miCalmClear
4:15 AM10.8 °F5.0 °F78 %30.25 in10.0 miCalmScattered Clouds
4:35 AM9.3 °F3.0 °F76 %30.26 in10.0 miCalmMostly Cloudy
4:55 AM10.4 °F5.0 °F79 %30.26 in10.0 miCalmOvercast
5:15 AM9.1 °F3.6 °F78 %30.27 in10.0 miCalmMostly Cloudy
5:35 AM11.7 °F6.1 °F78 %30.26 in10.0 miCalmScattered Clouds
5:55 AM7.9 °F3.0 °F81 %30.26 in10.0 miCalmScattered Clouds
6:15 AM9.7 °F5.0 °F81 %30.27 in10.0 miCalmScattered Clouds
6:35 AM9.1 °F3.9 °F79 %30.27 in10.0 miCalmOvercast
6:55 AM7.5 °F2.5 °F80 %30.27 in10.0 miCalmScattered Clouds
7:15 AM12.7 °F6.4 °F76 %30.25 in10.0 miCalmClear
7:35 AM9.9 °F4.1 °F78 %30.25 in10.0 miCalmMostly Cloudy
7:55 AM10.0 °F4.6 °F79 %30.25 in10.0 miCalmOvercast
8:15 AM7.7 °F2.3 °F79 %30.27 in10.0 miCalmScattered Clouds
8:35 AM11.3 °F5.0 °F76 %30.27 in10.0 miENE (70°)4.6 mphClear
8:55 AM15.3 °F6.6 °F69 %30.26 in10.0 miEast (80°)3.5 mphClear
9:15 AM15.8 °F6.3 °F66 %30.26 in10.0 miCalmClear
9:35 AM15.4 °F5.0 °F63 %30.27 in10.0 miCalmClear
9:55 AM16.5 °F5.9 °F63 %30.26 in10.0 miCalmScattered Clouds
10:15 AM21.4 °F8.4 °F57 %30.26 in10.0 miCalmClear
10:35 AM21.9 °F8.8 °F57 %30.27 in10.0 miSW (220°)9.2 mphMostly Cloudy
10:55 AM21.9 °F9.1 °F58 %30.27 in10.0 miCalmScattered Clouds
11:15 AM25.9 °F10.2 °F52 %30.26 in10.0 miCalmScattered Clouds
11:35 AM26.8 °F11.5 °F53 %30.25 in10.0 miCalmMostly Cloudy
11:55 AM28.4 °F12.2 °F51 %30.24 in10.0 miCalmOvercast
12:15 PM27.1 °F13.8 °F57 %30.24 in10.0 miCalmOvercast
12:35 PM27.1 °F14.4 °F59 %30.23 in10.0 miCalmOvercast
12:55 PM26.4 °F14.7 °F61 %30.24 in10.0 miCalmOvercast
1:15 PM30.0 °F16.0 °F56 %30.23 in10.0 miCalmOvercast
1:35 PM32.2 °F17.4 °F55 %30.23 in10.0 miCalmOvercast
1:55 PM32.5 °F18.1 °F55 %30.22 in10.0 miCalmOvercast
2:15 PM35.6 °F19.4 °F52 %30.22 in10.0 miCalmOvercast
2:35 PM35.8 °F23.2 °F60 %30.22 in10.0 miNNW (330°)5.8 mphOvercast
2:55 PM35.6 °F27.5 °F72 %30.23 in4.0 miNorth (10°)6.9 mphOvercast
3:15 PM34.9 °F29.1 °F79 %30.24 in3.0 miNNW (340°)4.6 mphOvercast
3:35 PM34.0 °F30.4 °F87 %30.24 in1.2 miCalmOvercast
3:55 PM32.5 °F31.6 °F96 %30.24 in1.2 miESE (120°)3.5 mphOvercast
4:15 PM32.0 °F31.8 °F99 %30.24 in0.5 miSE (130°)3.5 mphOvercast
4:35 PM32.0 °F31.8 °F99 %30.24 in0.8 miESE (110°)5.8 mphOvercast
4:55 PM32.0 °F31.8 °F99 %30.24 in1.2 miESE (120°)4.6 mphOvercast
5:15 PM32.0 °F31.8 °F99 %30.25 in1.2 miESE (110°)3.5 mphOvercast
5:35 PM32.0 °F32.0 °F100 %30.25 in2.0 miESE (120°)3.5 mphOvercast
5:55 PM32.0 °F31.8 °F99 %30.26 in1.5 miCalmOvercast
6:15 PM31.1 °F30.9 °F99 %30.27 in0.5 miENE (70°)6.9 mphOvercast
6:35 PM30.7 °F30.4 °F99 %30.28 in1.8 miCalmOvercast
6:55 PM30.7 °F30.2 °F98 %30.27 in1.8 miESE (110°)3.5 mphOvercast
7:15 PM31.1 °F31.1 °F100 %30.28 in2.5 miESE (120°)5.8 mphOvercast
7:35 PM31.8 °F31.6 °F99 %30.27 in5.0 miESE (110°)3.5 mphOvercast
7:55 PM31.1 °F31.1 °F100 %30.29 in2.5 miCalmOvercast
8:15 PM31.1 °F30.9 °F99 %30.29 in3.0 miCalmOvercast
8:35 PM31.1 °F30.9 °F99 %30.28 in4.0 miCalmOvercast
8:55 PM31.5 °F31.1 °F99 %30.29 in7.0 miCalmOvercast
9:15 PM30.9 °F30.7 °F99 %30.30 in2.5 miCalmOvercast
9:35 PM31.1 °F30.9 °F99 %30.29 in3.0 miSSE (150°)3.5 mphOvercast
9:55 PM30.6 °F30.2 °F99 %30.29 in1.5 miCalmOvercast
10:15 PM30.9 °F30.7 °F99 %30.29 in3.0 miCalmOvercast
10:35 PM31.3 °F31.1 °F99 %30.29 in7.0 miCalmOvercast
10:55 PM30.2 °F30.2 °F100 %30.28 in1.5 miCalmOvercast
11:15 PM30.4 °F30.2 °F99 %30.30 in2.5 miCalmOvercast
11:35 PM30.9 °F30.7 °F99 %30.30 in5.0 miCalmOvercast
11:55 PM30.6 °F30.2 °F99 %30.30 in3.0 miCalmOvercast
Hourly data recorded from KSBS, located miles away from Steamboat Springs, Colorado







STORIES FROM OUR PARTNERS